Regional Weather Roundup
Issued by NWS

Home | Current Version | Previous Version | Text Only | Print | Product List | Glossary On
Versions: 1 2 3 4 5 6 7 8 9 10 11 12 13 14 15 16 17 18 19 20 21 22 23 24 25 26 27 28 29 30 31 32 33 34 35 36 37 38 39 40 41 42 43 44 45 46 47 48 49 50
000
ASUS46 KSTO 010015
RWRCA

NORTHERN AND CENTRAL CA REGIONAL WEATHER ROUNDUP
NATIONAL WEATHER SERVICE SACRAMENTO CA
500 PM PDT SUN APR 30 2017

NOTE: FAIR INDICATES FEW OR NO CLOUDS BELOW 12,000 FEET WITH NO
SIGNIFICANT WEATHER AND/OR OBSTRUCTIONS TO VISIBILITY.

CAZ001-003-010100-
NORTHWEST AREA

CITY           SKY/WX    TMP DP  RH WIND       PRES   REMARKS
CRESCENT CITY  SUNNY     56  48  74 N15G22    30.30F
UKIAH          SUNNY     78  46  32 VRB7      30.09F
$$

CAZ006-505>513-010100-
BAY AREA

CITY           SKY/WX    TMP DP  RH WIND       PRES   REMARKS
SANTA ROSA     SUNNY     79  57  46 SE10      30.03F
SAN RAFAEL     N/A       78  MM  MM MISG
NAPA           SUNNY     79  56  45 S10       30.05F
CONCORD        SUNNY     83  49  30 W14       30.05F
OAKLAND CITY   N/A      MM  MM  MM MISG
OAKLAND        SUNNY     69  55  60 W10       30.09F
SAN FRAN CITY  N/A       MM  MM  MM MISG
SAN FRAN ARPT  SUNNY     68  49  50 W24       30.09F
LIVERMORE      SUNNY     81  51  35 W12       30.05F
HAYWARD        SUNNY     70  51  51 W15       30.08F
REDWOOD CITY   N/A       81  MM  29 MISG
MOFFETT ARPT   SUNNY     74  54  49 N14       30.08F
SAN JOSE ARPT  SUNNY     76  50  40 NW18      30.07F
$$
CAZ034-037-514>518-010100-
CENTRAL COAST

CITY           SKY/WX    TMP DP  RH WIND       PRES   REMARKS
WATSONVILLE    SUNNY     72  56  57 E7        30.07F HAZE
SALINAS        SUNNY     71  48  43 W13       30.08F
MONTEREY       SUNNY     67  47  48 W7        30.10F
SAN LUIS OBISP SUNNY     70  47  43 NW15      30.02F
SANTA MARIA    SUNNY     68  49  50 NW13G18   30.03F
$$
CAZ015-016-010100-
NORTHERN SACRAMENTO VALLEY

CITY           SKY/WX    TMP DP  RH WIND       PRES   REMARKS
REDDING        SUNNY     84  41  21 SW6       30.02F
RED BLUFF      SUNNY     85  41  21 VRB5      30.04F
OROVILLE       SUNNY     84  46  26 MISG      30.04F
$$
CAZ016>018-010100-
SOUTHERN SACRAMENTO VALLEY

CITY           SKY/WX    TMP DP  RH WIND       PRES   REMARKS
AUBURN         SUNNY     75  46  35 NW7       30.10S
BEALE AFB      SUNNY     83  48  29 NW8       30.02F
LINCOLN        FAIR      82  46  28 N5        30.03F
MARYSVILLE     SUNNY     83  47  28 NW8       30.03F
SAC INTL ARPT  SUNNY     82  48  30 NW6       30.03F
MATHER AIRPORT SUNNY     82  46  28 NW10G16   30.04F
DOWNTOWN SAC   N/A       86  MM  MM MISG
SAC EXEC ARPT  SUNNY     83  46  27 VRB5      30.03F
VACAVILLE      SUNNY     83  54  36 S8        30.05F
TRAVIS AFB     SUNNY     79  55  43 SW13      30.02F
$$
CAZ019>021-010100-
SAN JOAQUIN VALLEY

CITY           SKY/WX    TMP DP  RH WIND       PRES   REMARKS
STOCKTON       SUNNY     85  45  24 W8G18     30.03F
MODESTO        SUNNY     86  44  23 NW10G23   30.02F
MERCED         SUNNY     84  43  23 NW16      30.01F
LEMOORE        SUNNY     86  32  14 N13G22    30.02F
FRESNO         MOSUNNY   83  40  21 W9        30.01F
HANFORD        SUNNY     86  40  19 N8        30.01F
PORTERVILLE      N/A     85  41  21 VRB6G16   30.01F
BAKERSFIELD    SUNNY     87  38  17 NW12      30.00F
$$
CAZ011-012-071-010100-
NORTHERN MOUNTAINS

CITY           SKY/WX    TMP DP  RH WIND       PRES   REMARKS
YREKA          SUNNY     67  38  34 N15G23    30.21S
MOUNT SHASTA   SUNNY     67  36  31 NW8       30.19F
ALTURAS        SUNNY     63  31  30 NW9G18    30.19F
$$
CAZ011-012-071-010100-
SIERRA NEVADA MTNS

CITY           SKY/WX    TMP DP  RH WIND       PRES   REMARKS
BLUE CANYON    SUNNY     63  34  33 W10G18    30.23F
TRUCKEE        PTSUNNY   63  34  34 W14G20    30.22S
TAHOE VLY ARPT SUNNY     62  28  27 CALM      30.22F
MAMMOTH LAKES  FAIR      66  22  18 W16G22    30.22S
$$




USA.gov is the U.S. government's official web portal to all federal, state and local government web resources and services.